EW1645 Weather Reports


Display with metric or nautical units.
time (UTC)temp
F
wind
direction
speed
MPH
gust
MPH
rain 1hr
in
rain 24hr
in
rain mn
in
humidity
%
barometer
mb
20260502130527 48 15 1.0 3.0 0.00 0.00 0.00 52 1015.6
20260502123526 49 97 1.0 2.0 0.00 0.00 0.00 55 1015.3
20260502123026 48 224 0.0 1.0 0.00 0.00 0.00 54 1015.3
20260502122527 48 210 0.0 1.0 0.00 0.00 0.00 53 1015.4
20260502121527 48 222 0.0 2.0 0.00 0.00 0.00 53 1015.4
20260502121026 48 255 0.0 1.0 0.00 0.00 0.00 54 1015.4
20260502120526 48 300 0.0 2.0 0.00 0.00 0.00 54 1015.4
20260502115526 48 160 1.0 3.0 0.00 0.00 0.00 52 1015.1
20260502115026 48 302 1.0 2.0 0.00 0.00 0.00 53 1015.1
20260502114026 48 276 0.0 0.0 0.00 0.00 0.00 53 1015.0
20260502113526 48 277 0.0 1.0 0.00 0.00 0.00 54 1014.9
20260502113027 48 236 0.0 1.0 0.00 0.00 0.00 52 1014.7
20260502111526 48 263 1.0 3.0 0.00 0.00 0.00 50 1014.9
20260502111026 48 333 0.0 2.0 0.00 0.00 0.00 49 1014.8
20260502110526 48 292 0.0 2.0 0.00 0.00 0.00 51 1014.9
20260502110026 48 321 0.0 1.0 0.00 0.00 0.00 51 1014.8
20260502105526 48 333 0.0 2.0 0.00 0.00 0.00 50 1014.7
20260502104026 48 250 0.0 2.0 0.00 0.00 0.00 49 1014.8
20260502103527 48 139 1.0 2.0 0.00 0.00 0.00 49 1014.8
20260502103026 48 285 1.0 6.0 0.00 0.00 0.00 49 1014.8
20260502101025 49 259 1.0 3.0 0.00 0.00 0.00 50 1014.9
20260502100527 49 261 1.0 3.0 0.00 0.00 0.00 50 1014.9
20260502091525 49 268 3.0 10.0 0.00 0.00 0.00 54 1014.8
20260502091026 50 346 1.0 3.0 0.00 0.00 0.00 56 1014.8
20260502090526 50 256 0.0 3.0 0.00 0.00 0.00 55 1014.8
20260502071525 51 356 1.0 5.0 0.00 0.00 0.00 65 1014.3
20260502071026 51 258 1.0 3.0 0.00 0.00 0.00 64 1014.3
20260502070525 51 274 1.0 6.0 0.00 0.00 0.00 65 1014.3
20260502070025 51 348 0.0 2.0 0.00 0.00 0.00 66 1014.3
20260502065025 51 230 1.0 2.0 0.00 0.00 0.00 66 1014.4
20260502064526 51 33 1.0 2.0 0.00 0.00 0.00 65 1014.4
20260502063526 51 26 1.0 2.0 0.00 0.00 0.00 65 1014.4
20260502062525 51 66 0.0 0.0 0.00 0.00 0.00 65 1014.6
20260502062025 51 63 0.0 0.0 0.00 0.00 0.00 65 1014.6
20260502061026 52 62 0.0 0.0 0.00 0.00 0.00 64 1014.6
20260502060525 52 87 0.0 0.0 0.00 0.00 0.00 65 1014.7
20260502060025 52 80 0.0 2.0 0.00 0.00 0.00 65 1014.7
20260502055525 52 324 0.0 0.0 0.00 0.00 0.00 64 1014.7
20260502055025 52 326 0.0 1.0 0.00 0.00 0.00 64 1014.7
20260502054525 52 350 0.0 1.0 0.00 0.00 0.00 63 1014.5
20260502054026 52 15 0.0 0.0 0.00 0.00 0.00 64 1014.5
20260502053525 52 29 0.0 0.0 0.00 0.00 0.00 63 1014.5
20260502053025 53 29 0.0 1.0 0.00 0.00 0.00 62 1014.5
20260502052525 53 29 0.0 2.0 0.00 0.00 0.00 62 1014.5
20260502052025 53 28 0.0 1.0 0.00 0.00 0.00 62 1014.5
20260502051526 53 27 0.0 1.0 0.00 0.00 0.00 63 1014.5
20260502051025 53 25 1.0 1.0 0.00 0.00 0.00 62 1014.5
20260502050525 54 38 1.0 2.0 0.00 0.00 0.00 62 1014.5
20260502050026 54 29 1.0 2.0 0.00 0.00 0.00 63 1014.5
20260502045025 54 29 1.0 2.0 0.00 0.00 0.00 64 1014.5
20260502044525 54 33 1.0 2.0 0.00 0.00 0.00 64 1014.6
20260502044025 55 30 0.0 3.0 0.00 0.00 0.00 63 1014.6
20260502043526 55 355 1.0 3.0 0.00 0.00 0.00 62 1014.5
20260502043025 55 24 1.0 2.0 0.00 0.00 0.00 62 1014.4
20260502042525 55 24 1.0 5.0 0.00 0.00 0.00 62 1014.4
20260502042025 55 28 1.0 3.0 0.00 0.00 0.00 63 1014.3
20260502041526 55 38 0.0 3.0 0.00 0.00 0.00 63 1014.3
20260502041025 55 59 2.0 7.0 0.00 0.00 0.00 63 1014.3
20260502040525 55 351 1.0 2.0 0.00 0.00 0.00 63 1014.2
20260502040025 56 36 0.0 2.0 0.00 0.00 0.00 64 1014.3
20260502035525 56 259 0.0 1.0 0.00 0.00 0.00 61 1014.2
20260502035025 56 6 1.0 3.0 0.00 0.00 0.00 62 1014.2
20260502034525 56 35 1.0 3.0 0.00 0.00 0.00 61 1014.2
20260502034024 56 61 1.0 3.0 0.00 0.00 0.00 61 1014.2
20260502033526 57 269 0.0 1.0 0.00 0.00 0.00 59 1014.2
20260502033025 57 270 0.0 1.0 0.00 0.00 0.00 59 1014.2
20260502032525 57 226 0.0 2.0 0.00 0.00 0.00 58 1014.1
20260502032026 57 238 1.0 3.0 0.00 0.00 0.00 57 1014.0
20260502031526 58 249 1.0 3.0 0.00 0.00 0.00 57 1014.0
20260502031026 58 295 1.0 3.0 0.00 0.00 0.00 55 1013.8
20260502030526 58 314 1.0 3.0 0.00 0.00 0.00 55 1013.6
20260502030025 59 228 1.0 5.0 0.00 0.00 0.00 55 1013.6
20260502025024 59 251 1.0 3.0 0.00 0.00 0.00 53 1013.7
20260502024525 59 292 2.0 3.0 0.00 0.00 0.00 52 1013.6
20260502024024 59 359 1.0 5.0 0.00 0.00 0.00 52 1013.5
20260502023524 60 161 1.0 5.0 0.00 0.00 0.00 53 1013.4
20260502023026 60 309 1.0 5.0 0.00 0.00 0.00 52 1013.2
20260502022525 60 99 0.0 2.0 0.00 0.00 0.00 55 1013.0
20260502022025 60 208 1.0 3.0 0.00 0.00 0.00 55 1012.9
20260502021525 60 248 1.0 3.0 0.00 0.00 0.00 56 1012.8
20260502021024 60 257 1.0 5.0 0.00 0.00 0.00 56 1012.7
20260502020524 60 235 1.0 6.0 0.00 0.00 0.00 57 1012.4
20260502015025 58 244 0.0 1.0 0.00 0.00 0.00 63 1012.2
20260502014525 58 100 1.0 2.0 0.00 0.00 0.00 60 1012.1
20260502014025 58 205 0.0 0.0 0.00 0.00 0.00 60 1012.1
20260502012025 58 204 0.0 0.0 0.00 0.00 0.00 62 1011.9
20260502011024 58 204 0.0 0.0 0.00 0.00 0.00 61 1011.9
20260502010525 58 214 0.0 0.0 0.00 0.00 0.00 62 1011.8
20260502010025 58 214 0.0 0.0 0.00 0.00 0.00 60 1011.8
20260502005525 59 214 0.0 0.0 0.00 0.00 0.00 59 1011.8
20260502005026 59 214 0.0 1.0 0.00 0.00 0.00 59 1011.6
20260502004524 59 119 1.0 3.0 0.00 0.00 0.00 55 1011.4
20260502004025 60 227 0.0 1.0 0.00 0.00 0.00 58 1011.4
20260502003524 60 232 0.0 0.0 0.00 0.00 0.00 54 1011.3
20260502003024 60 233 0.0 0.0 0.00 0.00 0.00 55 1011.4
20260502002524 61 266 0.0 1.0 0.00 0.00 0.00 55 1011.3
20260502002024 61 269 0.0 2.0 0.00 0.00 0.00 54 1011.1
20260502001024 61 283 2.0 6.0 0.00 0.00 0.00 52 1010.9
20260502000525 61 276 2.0 6.0 0.00 0.00 0.00 52 1010.8
20260502000024 61 350 1.0 6.0 0.00 0.00 0.00 53 1010.6
20260501235525 61 81 0.0 2.0 0.00 0.00 0.00 54 1010.4
20260501235024 62 310 1.0 6.0 0.00 0.00 0.00 51 1010.3
20260501234524 62 259 1.0 3.0 0.00 0.00 0.00 51 1010.2
20260501234024 62 292 3.0 10.0 0.00 0.00 0.00 51 1010.2
20260501233025 63 152 1.0 3.0 0.00 0.00 0.00 51 1010.2
20260501232524 63 237 2.0 5.0 0.00 0.00 0.00 50 1010.3
20260501232025 63 346 1.0 5.0 0.00 0.00 0.00 50 1010.3
20260501231524 63 62 1.0 3.0 0.00 0.00 0.00 49 1010.3
20260501231024 64 139 2.0 10.0 0.00 0.00 0.00 49 1010.3
20260501230524 64 51 1.0 5.0 0.00 0.00 0.00 49 1010.3
20260501230024 65 274 2.0 5.0 0.00 0.00 0.00 48 1010.4
20260501225524 65 75 2.0 6.0 0.00 0.00 0.00 47 1010.3
20260501224524 66 142 2.0 7.0 0.00 0.00 0.00 45 1010.4
20260501224024 67 158 1.0 5.0 0.00 0.00 0.00 45 1010.3
20260501223524 67 218 2.0 6.0 0.00 0.00 0.00 45 1010.4
20260501223024 68 268 2.0 6.0 0.00 0.00 0.00 44 1010.3
20260501222525 68 86 1.0 8.0 0.00 0.00 0.00 44 1010.3
20260501222024 68 239 1.0 5.0 0.00 0.00 0.00 44 1010.4
20260501221024 67 128 1.0 5.0 0.00 0.00 0.00 45 1010.5
20260501220524 67 114 1.0 3.0 0.00 0.00 0.00 45 1010.5
20260501215524 67 275 1.0 3.0 0.00 0.00 0.00 45 1010.5
20260501215024 67 298 2.0 3.0 0.00 0.00 0.00 44 1010.6
20260501214525 68 125 1.0 3.0 0.00 0.00 0.00 42 1010.7
20260501214024 69 111 0.0 3.0 0.00 0.00 0.00 43 1010.8
20260501213524 68 33 1.0 3.0 0.00 0.00 0.00 44 1010.7
20260501213025 68 118 1.0 6.0 0.00 0.00 0.00 44 1010.8
20260501212525 68 263 2.0 3.0 0.00 0.00 0.00 43 1010.8
20260501211523 68 114 2.0 3.0 0.00 0.00 0.00 43 1010.9
20260501211024 69 101 1.0 3.0 0.00 0.00 0.00 43 1010.9
20260501210024 68 173 2.0 5.0 0.00 0.00 0.00 44 1010.9
20260501205524 69 36 2.0 5.0 0.00 0.00 0.00 43 1011.0
20260501205024 69 72 2.0 3.0 0.00 0.00 0.00 43 1011.1
20260501204524 68 236 1.0 5.0 0.00 0.00 0.00 42 1011.1
20260501204024 69 211 2.0 5.0 0.00 0.00 0.00 41 1011.2
20260501203524 68 48 1.0 6.0 0.00 0.00 0.00 43 1011.2
20260501203024 68 343 2.0 3.0 0.00 0.00 0.00 41 1011.3
20260501202524 68 14 1.0 8.0 0.00 0.00 0.00 42 1011.3
20260501202024 69 225 2.0 5.0 0.00 0.00 0.00 41 1011.4
20260501201524 69 305 2.0 5.0 0.00 0.00 0.00 41 1011.5
20260501201024 69 110 1.0 5.0 0.00 0.00 0.00 44 1011.5
20260501200523 68 335 1.0 6.0 0.00 0.00 0.00 44 1011.6
20260501200024 68 157 2.0 8.0 0.00 0.00 0.00 42 1011.9
20260501195024 68 124 2.0 5.0 0.00 0.00 0.00 43 1011.9
20260501194523 69 328 2.0 5.0 0.00 0.00 0.00 41 1012.1
20260501194024 69 114 2.0 5.0 0.00 0.00 0.00 41 1012.3
20260501193523 69 58 1.0 3.0 0.00 0.00 0.00 40 1012.4
20260501193025 69 119 2.0 3.0 0.00 0.00 0.00 41 1012.5
20260501192523 68 33 2.0 9.0 0.00 0.00 0.00 41 1012.6
20260501191523 69 269 1.0 3.0 0.00 0.00 0.00 41 1012.7
20260501191024 69 136 2.0 7.0 0.00 0.00 0.00 40 1012.8
20260501185525 68 244 2.0 3.0 0.00 0.00 0.00 41 1013.0
20260501185023 68 81 2.0 6.0 0.00 0.00 0.00 42 1013.0
20260501184524 67 209 2.0 9.0 0.00 0.00 0.00 42 1013.1
20260501184023 67 116 2.0 8.0 0.00 0.00 0.00 41 1013.1
20260501183024 67 99 1.0 3.0 0.00 0.00 0.00 45 1013.3
20260501182025 67 254 2.0 6.0 0.00 0.00 0.00 44 1013.6
20260501181523 67 97 2.0 6.0 0.00 0.00 0.00 43 1013.6
20260501181024 66 274 2.0 6.0 0.00 0.00 0.00 42 1013.7
20260501180523 66 150 2.0 6.0 0.00 0.00 0.00 43 1013.8
20260501180023 66 263 2.0 3.0 0.00 0.00 0.00 44 1014.0
20260501175523 66 283 2.0 5.0 0.00 0.00 0.00 43 1014.0
20260501174524 65 97 1.0 3.0 0.00 0.00 0.00 45 1014.2
20260501174024 64 172 1.0 7.0 0.00 0.00 0.00 44 1014.3
20260501173523 65 48 2.0 8.0 0.00 0.00 0.00 43 1014.1
20260501172023 64 85 2.0 3.0 0.00 0.00 0.00 44 1014.6
20260501171024 64 7 2.0 7.0 0.00 0.00 0.00 45 1014.8
20260501170523 63 100 1.0 6.0 0.00 0.00 0.00 47 1014.9
20260501170023 63 255 2.0 3.0 0.00 0.00 0.00 43 1015.0
20260501165523 64 160 1.0 6.0 0.00 0.00 0.00 45 1015.1
20260501164523 63 141 0.0 3.0 0.00 0.00 0.00 47 1015.1
20260501164023 63 270 1.0 6.0 0.00 0.00 0.00 48 1015.2
20260501163523 62 7 1.0 3.0 0.00 0.00 0.00 48 1015.4
20260501163023 61 52 1.0 3.0 0.00 0.00 0.00 48 1015.4
20260501162524 61 149 2.0 7.0 0.00 0.00 0.00 46 1015.6
20260501161023 61 113 1.0 3.0 0.00 0.00 0.00 49 1015.7
20260501160525 60 92 1.0 3.0 0.00 0.00 0.00 49 1015.8
20260501160023 60 103 1.0 3.0 0.00 0.00 0.00 50 1015.9
20260501155524 59 24 2.0 5.0 0.00 0.00 0.00 50 1015.9
20260501155023 58 318 1.0 2.0 0.00 0.00 0.00 50 1016.0
20260501154023 58 156 1.0 2.0 0.00 0.00 0.00 52 1016.2
20260501153024 56 240 2.0 3.0 0.00 0.00 0.00 51 1016.3
20260501152522 56 96 2.0 3.0 0.00 0.00 0.00 54 1016.3
20260501152023 56 281 1.0 7.0 0.00 0.00 0.00 52 1016.5
20260501151523 56 222 0.0 2.0 0.00 0.00 0.00 54 1016.5
20260501151023 55 79 1.0 2.0 0.00 0.00 0.00 55 1016.5
20260501150523 55 117 1.0 3.0 0.00 0.00 0.00 55 1016.5
20260501150023 55 65 1.0 3.0 0.00 0.00 0.00 56 1016.4
20260501145523 54 1 1.0 3.0 0.00 0.00 0.00 57 1016.5
20260501145024 54 159 1.0 2.0 0.00 0.00 0.00 57 1016.7
20260501144523 54 47 1.0 1.0 0.00 0.00 0.00 55 1016.7
20260501144023 53 13 1.0 2.0 0.00 0.00 0.00 56 1016.7
20260501143024 53 264 0.0 2.0 0.00 0.00 0.00 54 1016.8